Antigo, WI

10:49 PM CDT on April 24, 2017 (GMT -0500)
Langlade County

Weather History for KAIG - December, 2013

Change the Weather History Date:

Thursday, December 5, 2013

  Actual Average Record
Temperature  
Mean Temperature 15 °F -  
Max Temperature 29 °F 29 °F 57 °F (2001)
Min Temperature 0 °F 12 °F -9 °F (1991)
Degree Days  
Heating Degree Days 50    
Moisture  
Dew Point 6 °F    
Average Humidity 78    
Maximum Humidity 90    
Minimum Humidity 66    
Precipitation  
Precipitation 0.02 in - - ()
Sea Level Pressure  
Sea Level Pressure 29.81 in    
Wind  
Wind Speed 20 mph (West)    
Max Wind Speed 30 mph    
Max Gust Speed 37 mph    
Visibility 9 miles    
Events Snow    
Averages and records for this station are not official NWS values.
T = Trace of Precipitation, MM = Missing Value Source: NWS Daily Summary

Daily Weather History Graph

Daily Weather History Graph

Search for Another Location

Airport or City:

Trip Planner

Search our weather history database for the weather conditions in past years. The results will help you decide how hot, cold, wet, or windy it might be!

Date:

Astronomy

Dec. 05, 2013 Rise Set
Actual Time 7:19 AM CST 4:14 PM CST
Civil Twilight 6:46 AM CST 4:48 PM CST
Nautical Twilight 6:09 AM CST 5:25 PM CST
Astronomical Twilight 5:33 AM CST 6:00 PM CST
Moon 9:36 AM CST (12/5) 7:39 PM CST (12/5)
Length of Visible Light 10h 02m
Length of Day
8h 55m
Waxing Crescent, 11% of the Moon is Illuminated
Dec 5
Waxing Crescent
Dec 9
First Quarter
Dec 17
Full
Dec 25
Last Quarter
Jan 1
New

Hourly Weather History & Observations

Time (CST) Temp. Windchill Dew Point Humidity Pressure Visibility Wind Dir Wind Speed Gust Speed Precip Events Conditions
12:15 AM 29.3 °F 17.0 °F 26.6 °F 90% 29.44 in 10.0 mi West 18.4 mph 31.1 mph N/A   Overcast
12:35 AM 28.9 °F 16.9 °F 26.2 °F 90% 29.44 in 10.0 mi WSW 17.3 mph 29.9 mph N/A   Overcast
12:55 AM 28.4 °F 15.1 °F 24.6 °F 86% 29.45 in 10.0 mi West 20.7 mph 36.8 mph N/A   Overcast
1:15 AM 28.2 °F 14.2 °F 24.6 °F 86% 29.47 in 10.0 mi West 23.0 mph 29.9 mph N/A   Overcast
1:35 AM 27.5 °F 12.3 °F 24.8 °F 90% 29.48 in 10.0 mi WSW 26.5 mph 33.4 mph N/A   Overcast
1:55 AM 27.1 °F 12.4 °F 22.8 °F 84% 29.49 in 10.0 mi West 24.2 mph 33.4 mph N/A   Overcast
2:15 AM 26.6 °F 12.0 °F 23.4 °F 88% 29.51 in 10.0 mi West 23.0 mph 33.4 mph N/A   Overcast
2:35 AM 25.5 °F 10.9 °F 22.3 °F 88% 29.52 in 10.0 mi West 21.9 mph 28.8 mph N/A   Overcast
2:55 AM 23.9 °F 8.8 °F 20.3 °F 86% 29.51 in 10.0 mi West 21.9 mph 31.1 mph N/A   Overcast
3:15 AM 23.7 °F 9.3 °F 19.9 °F 85% 29.51 in 10.0 mi West 19.6 mph 29.9 mph N/A   Overcast
3:35 AM 23.4 °F 6.8 °F 20.8 °F 90% 29.52 in 10.0 mi West 26.5 mph 32.2 mph N/A   Overcast
3:55 AM 21.9 °F 3.9 °F 18.1 °F 85% 29.56 in 10.0 mi West 29.9 mph 36.8 mph N/A   Overcast
4:15 AM 20.3 °F 4.8 °F 16.5 °F 85% 29.57 in 10.0 mi West 19.6 mph 32.2 mph N/A   Overcast
4:35 AM 19.0 °F 1.6 °F 14.9 °F 84% 29.57 in 10.0 mi WSW 24.2 mph 33.4 mph N/A   Overcast
4:55 AM 18.1 °F -1.2 °F 14.4 °F 85% 29.58 in 10.0 mi WSW 29.9 mph - N/A   Overcast
5:15 AM 16.7 °F -2.5 °F 12.7 °F 84% 29.59 in 10.0 mi WSW 27.6 mph 33.4 mph N/A   Overcast
5:35 AM 15.8 °F 0.3 °F 11.7 °F 84% 29.61 in 10.0 mi WSW 16.1 mph 31.1 mph N/A Snow Light Snow
5:55 AM 15.3 °F -3.0 °F 10.9 °F 83% 29.62 in 5.0 mi West 23.0 mph 28.8 mph N/A Snow Light Snow
6:15 AM 14.0 °F -5.5 °F 9.1 °F 81% 29.64 in 4.0 mi West 25.3 mph 33.4 mph N/A Snow Light Snow
6:35 AM 13.1 °F -5.9 °F 8.4 °F 82% 29.66 in 4.0 mi West 23.0 mph 31.1 mph N/A Snow Light Snow
6:55 AM 11.7 °F -7.0 °F 6.8 °F 81% 29.68 in 4.0 mi West 20.7 mph 29.9 mph N/A Snow Light Snow
7:15 AM 11.1 °F -6.7 °F 5.9 °F 80% 29.69 in 10.0 mi West 18.4 mph 29.9 mph N/A Snow Light Snow
7:35 AM 10.8 °F -9.4 °F 5.5 °F 79% 29.70 in 10.0 mi West 24.2 mph 32.2 mph N/A   Overcast
7:55 AM 10.8 °F -8.1 °F 5.5 °F 79% 29.71 in 5.0 mi West 20.7 mph 27.6 mph N/A   Haze
8:15 AM 10.0 °F -8.1 °F 4.6 °F 79% 29.72 in 5.0 mi West 18.4 mph 27.6 mph N/A   Haze
8:35 AM 9.5 °F -8.3 °F 3.6 °F 77% 29.73 in 10.0 mi West 17.3 mph 28.8 mph N/A   Mostly Cloudy
8:55 AM 9.5 °F -9.8 °F 3.7 °F 77% 29.74 in 7.0 mi West 20.7 mph 29.9 mph N/A   Mostly Cloudy
9:15 AM 9.3 °F -10.0 °F 3.2 °F 76% 29.75 in 5.0 mi West 20.7 mph 31.1 mph N/A   Haze
9:35 AM 9.3 °F -10.9 °F 3.4 °F 77% 29.76 in 5.0 mi WSW 23.0 mph 29.9 mph N/A   Haze
9:55 AM 9.0 °F -10.0 °F 3.0 °F 77% 29.78 in 4.0 mi WSW 19.6 mph 27.6 mph N/A   Haze
10:15 AM 9.3 °F -10.5 °F 3.0 °F 76% 29.79 in 4.0 mi West 21.9 mph 27.6 mph N/A   Haze
10:35 AM 9.1 °F -11.6 °F 2.5 °F 74% 29.80 in 5.0 mi WSW 24.2 mph 29.9 mph N/A   Haze
10:55 AM 9.3 °F -10.0 °F 2.3 °F 73% 29.80 in 7.0 mi West 20.7 mph 28.8 mph N/A   Overcast
11:15 AM 9.0 °F -10.0 °F 1.6 °F 72% 29.81 in 10.0 mi West 19.6 mph 28.8 mph N/A   Mostly Cloudy
11:35 AM 9.9 °F -8.9 °F 1.9 °F 70% 29.81 in 10.0 mi West 19.6 mph 28.8 mph N/A   Mostly Cloudy
11:55 AM 9.9 °F -10.2 °F 1.4 °F 69% 29.81 in 10.0 mi West 23.0 mph 31.1 mph N/A   Scattered Clouds
12:15 PM 10.4 °F -8.2 °F 1.9 °F 69% 29.82 in 10.0 mi West 19.6 mph 28.8 mph N/A   Scattered Clouds
12:35 PM 10.4 °F -9.9 °F 1.9 °F 69% 29.82 in 10.0 mi West 24.2 mph 29.9 mph N/A   Scattered Clouds
12:55 PM 10.9 °F -8.8 °F 1.8 °F 67% 29.83 in 10.0 mi West 23.0 mph 29.9 mph N/A   Scattered Clouds
1:15 PM 11.3 °F -3.6 °F 2.3 °F 67% 29.84 in 10.0 mi West 12.7 mph 31.1 mph N/A   Scattered Clouds
1:35 PM 11.3 °F -7.9 °F 1.9 °F 66% 29.85 in 10.0 mi West 21.9 mph 28.8 mph N/A   Scattered Clouds
1:55 PM 11.3 °F -7.4 °F 1.9 °F 66% 29.86 in 10.0 mi WSW 20.7 mph 26.5 mph N/A   Scattered Clouds
2:15 PM 10.2 °F -7.9 °F 1.4 °F 68% 29.87 in 10.0 mi WSW 18.4 mph 26.5 mph N/A   Scattered Clouds
2:35 PM 10.2 °F -8.4 °F 1.4 °F 68% 29.88 in 10.0 mi West 19.6 mph 26.5 mph N/A   Mostly Cloudy
2:55 PM 9.9 °F -8.4 °F 1.6 °F 69% 29.89 in 10.0 mi West 18.4 mph 21.9 mph N/A   Scattered Clouds
3:35 PM 8.6 °F -10.0 °F 1.4 °F 73% 29.90 in 10.0 mi WSW 18.4 mph 21.9 mph N/A   Scattered Clouds
3:55 PM 8.1 °F -8.4 °F 1.2 °F 74% 29.92 in 10.0 mi West 13.8 mph 24.2 mph N/A   Mostly Cloudy
4:15 PM 7.2 °F -9.6 °F 0.5 °F 74% 29.93 in 10.0 mi WSW 13.8 mph - N/A   Mostly Cloudy
4:35 PM 6.6 °F -8.8 °F 0.5 °F 76% 29.93 in 10.0 mi WSW 11.5 mph - N/A   Scattered Clouds
4:55 PM 5.9 °F -10.5 °F 0.1 °F 77% 29.94 in 10.0 mi WSW 12.7 mph - N/A   Scattered Clouds
5:15 PM 5.7 °F -10.7 °F 0.1 °F 78% 29.94 in 10.0 mi West 12.7 mph - N/A   Scattered Clouds
5:35 PM 5.4 °F -11.8 °F -0.0 °F 78% 29.95 in 10.0 mi West 13.8 mph 19.6 mph N/A   Scattered Clouds
5:55 PM 5.5 °F -12.9 °F 0.3 °F 79% 29.96 in 10.0 mi West 16.1 mph 19.6 mph N/A   Mostly Cloudy
6:15 PM 5.9 °F -11.2 °F 0.5 °F 78% 29.98 in 10.0 mi West 13.8 mph - N/A   Overcast
6:35 PM 5.9 °F -10.5 °F 0.5 °F 78% 30.00 in 10.0 mi West 12.7 mph 20.7 mph N/A   Overcast
6:55 PM 5.9 °F -13.0 °F 0.1 °F 77% 30.02 in 10.0 mi West 17.3 mph 23.0 mph N/A   Overcast
7:15 PM 5.9 °F -13.5 °F -0.2 °F 76% 30.04 in 10.0 mi West 18.4 mph 23.0 mph N/A   Overcast
7:35 PM 5.9 °F -11.8 °F -0.2 °F 76% 30.06 in 10.0 mi West 15.0 mph 19.6 mph N/A   Overcast
7:55 PM 5.7 °F -12.0 °F -0.4 °F 76% 30.06 in 10.0 mi West 15.0 mph 21.9 mph N/A   Overcast
8:15 PM 5.5 °F -14.0 °F -0.4 °F 77% 30.07 in 10.0 mi West 18.4 mph 23.0 mph N/A   Overcast
8:35 PM 5.0 °F -14.7 °F -0.9 °F 76% 30.08 in 10.0 mi West 18.4 mph 25.3 mph N/A   Overcast
8:55 PM 4.8 °F -13.2 °F -1.3 °F 76% 30.08 in 10.0 mi West 15.0 mph 26.5 mph N/A   Overcast
9:15 PM 4.6 °F -14.0 °F -1.3 °F 76% 30.09 in 10.0 mi West 16.1 mph - N/A   Overcast
9:35 PM 4.1 °F -13.4 °F -1.7 °F 77% 30.09 in 10.0 mi West 13.8 mph 24.2 mph N/A   Overcast
9:55 PM 3.7 °F -14.6 °F -1.8 °F 78% 30.10 in 10.0 mi West 15.0 mph 21.9 mph N/A   Overcast
10:15 PM 3.2 °F -15.3 °F -2.2 °F 78% 30.10 in 10.0 mi West 15.0 mph - N/A   Overcast
10:35 PM 2.8 °F -14.3 °F -2.4 °F 79% 30.10 in 10.0 mi West 12.7 mph - N/A   Overcast
10:55 PM 2.5 °F -15.5 °F -2.6 °F 79% 30.10 in 10.0 mi West 13.8 mph 19.6 mph N/A   Overcast
11:15 PM 1.9 °F -17.5 °F -3.1 °F 79% 30.10 in 10.0 mi West 16.1 mph 20.7 mph N/A   Overcast
11:35 PM 1.2 °F -17.1 °F -3.6 °F 80% 30.11 in 10.0 mi West 13.8 mph - N/A   Mostly Cloudy
11:55 PM 0.5 °F -16.5 °F -4.0 °F 81% 30.13 in 10.0 mi West 11.5 mph 18.4 mph N/A   Scattered Clouds